KI0MQ Weather Reports


Display with metric or nautical units.
time (UTC)temp
F
wind
direction
speed
MPH
gust
MPH
rain 1hr
in
rain 24hr
in
rain mn
in
humidity
%
barometer
mb
20260502224004 68 274 2.0 8.0 0.00 0.00 0.00 31 1015.3
20260502223503 68 220 2.0 6.0 0.00 0.00 0.00 33 1015.4
20260502223008 68 194 2.0 5.0 0.00 0.00 0.00 32 1015.5
20260502222004 68 232 2.0 4.0 0.00 0.00 0.00 33 1015.7
20260502221508 68 239 2.0 8.0 0.00 0.00 0.00 32 1015.8
20260502221003 68 271 1.0 8.0 0.00 0.00 0.00 31 1015.8
20260502220009 68 227 1.0 3.0 0.00 0.00 0.00 36 1016.0
20260502215503 67 235 1.0 3.0 0.00 0.00 0.00 32 1016.1
20260502214508 67 241 1.0 3.0 0.00 0.00 0.00 33 1016.2
20260502214003 67 231 1.0 6.0 0.00 0.00 0.00 33 1016.4
20260502213503 67 223 1.0 6.0 0.00 0.00 0.00 34 1016.4
20260502213008 67 273 2.0 6.0 0.00 0.00 0.00 34 1016.4
20260502212504 67 294 2.0 8.0 0.00 0.00 0.00 33 1016.5
20260502212004 67 244 1.0 8.0 0.00 0.00 0.00 34 1016.6
20260502211510 67 230 1.0 3.0 0.00 0.00 0.00 34 1016.7
20260502211003 67 252 1.0 5.0 0.00 0.00 0.00 36 1016.7
20260502210503 67 274 1.0 5.0 0.00 0.00 0.00 33 1016.8
20260502205503 67 247 1.0 4.0 0.00 0.00 0.00 32 1016.9
20260502205003 67 214 2.0 5.0 0.00 0.00 0.00 35 1017.0
20260502204508 67 199 2.0 5.0 0.00 0.00 0.00 33 1017.2
20260502204003 68 228 1.0 4.0 0.00 0.00 0.00 34 1017.2
20260502203009 67 334 1.0 5.0 0.00 0.00 0.00 32 1017.4
20260502202503 67 263 1.0 2.0 0.00 0.00 0.00 32 1017.5
20260502202003 67 282 1.0 6.0 0.00 0.00 0.00 33 1017.7
20260502201003 67 310 1.0 5.0 0.00 0.00 0.00 36 1017.7
20260502200008 68 240 2.0 4.0 0.00 0.00 0.00 33 1017.9
20260502195504 67 253 2.0 7.0 0.00 0.00 0.00 34 1018.0
20260502195004 66 290 2.0 9.0 0.00 0.00 0.00 40 1018.1
20260502194508 66 4 2.0 9.0 0.00 0.00 0.00 35 1018.2
20260502194003 66 352 2.0 7.0 0.00 0.00 0.00 35 1018.3
20260502193503 66 234 2.0 7.0 0.00 0.00 0.00 34 1018.4
20260502193009 66 246 2.0 7.0 0.00 0.00 0.00 36 1018.5
20260502192505 65 291 2.0 6.0 0.00 0.00 0.00 34 1018.6
20260502191508 65 301 1.0 7.0 0.00 0.00 0.00 35 1018.8
20260502191004 65 310 1.0 7.0 0.00 0.00 0.00 35 1018.9
20260502190503 64 313 2.0 9.0 0.00 0.00 0.00 36 1018.9
20260502190009 64 292 2.0 9.0 0.00 0.00 0.00 33 1019.1
20260502185003 65 277 2.0 8.0 0.00 0.00 0.00 35 1019.1
20260502184508 65 279 2.0 8.0 0.00 0.00 0.00 39 1019.1
20260502184003 64 318 1.0 8.0 0.00 0.00 0.00 36 1019.3
20260502183010 62 337 3.0 8.0 0.00 0.00 0.00 36 1019.4
20260502182503 63 343 2.0 8.0 0.00 0.00 0.00 40 1019.6
20260502182003 62 7 3.0 10.0 0.00 0.00 0.00 37 1019.6
20260502181508 62 340 3.0 10.0 0.00 0.00 0.00 39 1019.6
20260502180504 63 244 1.0 7.0 0.00 0.00 0.00 40 1019.7
20260502170504 58 355 3.0 7.0 0.00 0.00 0.00 43 1020.8
20260502164003 58 228 1.0 4.0 0.00 0.00 0.00 43 1020.7
20260502163504 57 339 2.0 7.0 0.00 0.00 0.00 46 1020.8
20260502163009 57 354 3.0 7.0 0.00 0.00 0.00 43 1020.8
20260502162003 57 289 1.0 8.0 0.00 0.00 0.00 41 1021.0
20260502161508 57 297 1.0 4.0 0.00 0.00 0.00 51 1021.0
20260502161003 56 302 1.0 4.0 0.00 0.00 0.00 47 1021.1
20260502160504 56 226 1.0 3.0 0.00 0.00 0.00 47 1021.2
20260502152003 53 306 1.0 5.0 0.00 0.00 0.00 52 1021.4
20260502150504 52 334 0.0 2.0 0.00 0.00 0.00 57 1021.4
20260502123504 33 0 0.0 0.0 0.00 0.00 0.00 93 1021.3
20260502123008 33 0 0.0 0.0 0.00 0.00 0.00 93 1021.2
20260502122505 32 0 0.0 0.0 0.00 0.00 0.00 93 1021.2
20260502122003 32 0 0.0 0.0 0.00 0.00 0.00 92 1021.1
20260502121508 31 0 0.0 0.0 0.00 0.00 0.00 92 1021.2
20260502121003 31 0 0.0 0.0 0.00 0.00 0.00 92 1021.1
20260502120504 31 0 0.0 0.0 0.00 0.00 0.00 92 1021.2
20260502115503 31 0 0.0 0.0 0.00 0.00 0.00 92 1021.1
20260502115004 31 0 0.0 0.0 0.00 0.00 0.00 91 1021.1
20260502114507 31 0 0.0 0.0 0.00 0.00 0.00 91 1021.1
20260502114003 31 0 0.0 0.0 0.00 0.00 0.00 91 1021.1
20260502113504 31 0 0.0 0.0 0.00 0.00 0.00 91 1021.1
20260502113008 31 0 0.0 0.0 0.00 0.00 0.00 91 1021.1
20260502112504 31 0 0.0 0.0 0.00 0.00 0.00 91 1021.1
20260502112003 31 0 0.0 0.0 0.00 0.00 0.00 91 1021.1
20260502111508 31 0 0.0 0.0 0.00 0.00 0.00 91 1021.0
20260502111003 31 0 0.0 0.0 0.00 0.00 0.00 91 1020.9
20260502110503 31 0 0.0 0.0 0.00 0.00 0.00 91 1020.9
20260502105504 31 0 0.0 0.0 0.00 0.00 0.00 90 1020.9
20260502105003 31 0 0.0 0.0 0.00 0.00 0.00 90 1020.9
20260502104508 31 0 0.0 0.0 0.00 0.00 0.00 90 1020.9
20260502103504 31 0 0.0 0.0 0.00 0.00 0.00 90 1020.9
20260502103009 32 0 0.0 0.0 0.00 0.00 0.00 90 1020.9
20260502102504 32 0 0.0 0.0 0.00 0.00 0.00 90 1020.8
20260502101508 32 0 0.0 0.0 0.00 0.00 0.00 90 1020.7
20260502091508 33 0 0.0 0.0 0.00 0.00 0.00 89 1020.6
20260502091003 33 0 0.0 0.0 0.00 0.00 0.00 89 1020.5
20260502090503 32 0 0.0 0.0 0.00 0.00 0.00 88 1020.5
20260502071507 35 0 0.0 0.0 0.00 0.00 0.00 86 1020.6
20260502071003 34 0 0.0 0.0 0.00 0.00 0.00 85 1020.6
20260502070503 35 0 0.0 0.0 0.00 0.00 0.00 85 1020.6
20260502070008 35 0 0.0 0.0 0.00 0.00 0.00 84 1020.7
20260502065503 35 0 0.0 0.0 0.00 0.00 0.00 84 1020.6
20260502065003 35 0 0.0 0.0 0.00 0.00 0.00 83 1020.7
20260502064508 35 0 0.0 0.0 0.00 0.00 0.00 82 1020.6
20260502064003 35 0 0.0 0.0 0.00 0.00 0.00 82 1020.6
20260502063505 36 0 0.0 0.0 0.00 0.00 0.00 82 1020.7
20260502063008 36 0 0.0 0.0 0.00 0.00 0.00 81 1020.7
20260502062004 36 0 0.0 0.0 0.00 0.00 0.00 81 1020.6
20260502061508 36 0 0.0 0.0 0.00 0.00 0.00 80 1020.6
20260502061004 36 0 0.0 0.0 0.00 0.00 0.00 79 1020.6
20260502060008 37 0 0.0 0.0 0.00 0.00 0.00 78 1020.5
20260502055503 37 0 0.0 0.0 0.00 0.00 0.00 78 1020.5
20260502055004 37 0 0.0 0.0 0.00 0.00 0.00 77 1020.5
20260502054003 38 0 0.0 0.0 0.00 0.00 0.00 76 1020.4
20260502053503 38 0 0.0 0.0 0.00 0.00 0.00 76 1020.3
20260502053008 38 0 0.0 0.0 0.00 0.00 0.00 76 1020.3
20260502052503 38 0 0.0 0.0 0.00 0.00 0.00 74 1020.4
20260502052004 38 0 0.0 0.0 0.00 0.00 0.00 73 1020.4
20260502051003 39 0 0.0 0.0 0.00 0.00 0.00 72 1020.3
20260502050010 39 0 0.0 0.0 0.00 0.00 0.00 70 1020.2
20260502045503 40 0 0.0 0.0 0.00 0.00 0.00 70 1020.1
20260502044508 40 0 0.0 0.0 0.00 0.00 0.00 68 1020.1
20260502043504 41 0 0.0 0.0 0.00 0.00 0.00 67 1020.0
20260502043008 41 0 0.0 0.0 0.00 0.00 0.00 67 1020.0
20260502042503 41 0 0.0 0.0 0.00 0.00 0.00 67 1020.0
20260502042003 42 0 0.0 0.0 0.00 0.00 0.00 66 1020.1
20260502041003 42 0 0.0 0.0 0.00 0.00 0.00 65 1020.0
20260502040504 43 0 0.0 0.0 0.00 0.00 0.00 65 1020.0
20260502040008 43 0 0.0 0.0 0.00 0.00 0.00 64 1020.0
20260502035504 43 0 0.0 0.0 0.00 0.00 0.00 64 1019.9
20260502035003 43 0 0.0 0.0 0.00 0.00 0.00 62 1019.9
20260502034508 44 0 0.0 0.0 0.00 0.00 0.00 62 1019.9
20260502033008 45 0 0.0 0.0 0.00 0.00 0.00 59 1019.9
20260502032503 45 0 0.0 0.0 0.00 0.00 0.00 57 1019.9
20260502032004 46 0 0.0 0.0 0.00 0.00 0.00 56 1019.8
20260502031508 46 0 0.0 0.0 0.00 0.00 0.00 55 1019.7
20260502031004 46 0 0.0 0.0 0.00 0.00 0.00 54 1019.8
20260502030504 47 0 0.0 0.0 0.00 0.00 0.00 54 1019.8
20260502030008 47 0 0.0 0.0 0.00 0.00 0.00 52 1019.7
20260502025504 47 0 0.0 0.0 0.00 0.00 0.00 52 1019.6
20260502025003 48 0 0.0 0.0 0.00 0.00 0.00 52 1019.6
20260502024509 48 0 0.0 0.0 0.00 0.00 0.00 51 1019.6
20260502023504 49 13 0.0 1.0 0.00 0.00 0.00 49 1019.4
20260502023008 49 13 0.0 1.0 0.00 0.00 0.00 49 1019.3
20260502022504 49 14 0.0 2.0 0.00 0.00 0.00 48 1019.3
20260502022003 50 14 0.0 3.0 0.00 0.00 0.00 48 1019.3
20260502021508 50 16 0.0 3.0 0.00 0.00 0.00 48 1019.3
20260502021003 50 17 0.0 2.0 0.00 0.00 0.00 48 1019.2
20260502020503 50 0 0.0 0.0 0.00 0.00 0.00 47 1019.0
20260502020008 51 19 0.0 1.0 0.00 0.00 0.00 46 1019.0
20260502015503 51 15 0.0 4.0 0.00 0.00 0.00 45 1019.0
20260502015003 51 4 0.0 4.0 0.00 0.00 0.00 44 1018.9
20260502014508 52 25 1.0 3.0 0.00 0.00 0.00 44 1018.8
20260502014003 52 58 1.0 5.0 0.00 0.00 0.00 43 1018.8
20260502013504 52 13 1.0 5.0 0.00 0.00 0.00 43 1018.7
20260502013008 52 16 1.0 5.0 0.00 0.00 0.00 43 1018.7
20260502012503 53 12 2.0 5.0 0.00 0.00 0.00 42 1018.7
20260502012004 53 3 2.0 7.0 0.00 0.00 0.00 42 1018.7
20260502011508 53 355 1.0 7.0 0.00 0.00 0.00 41 1018.5
20260502011003 54 9 1.0 6.0 0.00 0.00 0.00 41 1018.5
20260502010008 54 15 2.0 7.0 0.00 0.00 0.00 40 1018.4
20260502005503 54 17 2.0 7.0 0.00 0.00 0.00 40 1018.3
20260502005004 54 7 3.0 9.0 0.00 0.00 0.00 40 1018.2
20260502004508 55 13 3.0 9.0 0.00 0.00 0.00 39 1018.2
20260502004004 55 19 2.0 7.0 0.00 0.00 0.00 39 1018.1
20260502003504 55 5 2.0 6.0 0.00 0.00 0.00 39 1018.1
20260502003008 56 5 3.0 9.0 0.00 0.00 0.00 39 1018.1
20260502002503 56 357 3.0 9.0 0.00 0.00 0.00 38 1018.1
20260502002004 56 357 4.0 16.0 0.00 0.00 0.00 38 1018.0
20260502001507 56 353 3.0 16.0 0.00 0.00 0.00 37 1018.1
20260502001003 57 348 3.0 8.0 0.00 0.00 0.00 37 1018.0
20260502000008 57 355 3.0 9.0 0.00 0.00 0.00 37 1017.9
20260501235005 57 345 4.0 9.0 0.00 0.00 0.00 38 1018.0
20260501234509 57 352 4.0 9.0 0.00 0.00 0.00 37 1018.0
20260501234003 57 5 3.0 9.0 0.00 0.00 0.00 38 1018.0
20260501233503 57 358 3.0 9.0 0.00 0.00 0.00 38 1018.0
20260501233008 57 348 4.0 11.0 0.00 0.00 0.00 38 1017.9
20260501232003 57 344 4.0 12.0 0.00 0.00 0.00 37 1017.9
20260501231510 56 354 4.0 15.0 0.00 0.00 0.00 37 1018.0
20260501231003 57 350 4.0 15.0 0.00 0.00 0.00 38 1017.9
20260501230503 57 341 4.0 11.0 0.00 0.00 0.00 36 1017.8
20260501230009 57 349 3.0 11.0 0.00 0.00 0.00 37 1017.9
20260501225505 57 4 3.0 10.0 0.00 0.00 0.00 38 1017.7
20260501225003 57 352 4.0 11.0 0.00 0.00 0.00 38 1017.9
20260501224508 57 350 4.0 11.0 0.00 0.00 0.00 37 1017.9